User: anonymous   Login
Location: Unspecified
(0.0000°N, 0.0000°E)
Time: 17:21:28
(UTC+00:00)
Language:

TIANWANG 1C (TW-1C) - Orbit

View from above orbital plane
View from above orbital plane
View from above satellite
View from above satellite

Ground track
Ground track

The orbit data is extracted from the following two-line orbital elements,

1 40926U 15051B   18146.44043450  .00007182  00000-0  13551-3 0  9993
2 40926  97.1853 188.8876 0009711   9.0408 117.0203 15.48724058149946
Epoch (UTC): 26 May 2018 10:34:13
Eccentricity: 0.0009711
inclination: 97.1853°
perigee height: 414 km
apogee height: 427 km
right ascension of ascending node: 188.8876°
argument of perigee: 9.0408°
revolutions per day: 15.48724058
mean anomaly at epoch: 117.0203°
orbit number at epoch: 14994

The dashed part of the orbit path shows where the satellite is in the earth's shadow,  

DLR